Flag for U.S.A. Weather past 2 weeks in Bridgeport, Connecticut, U.S.A.

Now
16 °F

Light snow. Overcast.


Feels Like: -1 °F
Forecast: 18 / 27 °F
Wind: 20 mph from Northwest

Location: Sikorsky Memorial Airport

Current Time: Jan 27, 2015 at 11:25:29 PM

Latest Report: Jan 27, 2015 at 11:00 PM


Visibility: 2 mi

Pressure: 29.80 "Hg

Humidity: 74%

Dew point: 9 °F

Location of BridgeportLocation

Historic Weather in Bridgeport — Graph

°F

Bridgeport temperature yesterday

Maximum temperature yesterday: 25 °F (at 6:52 PM)
Minimum temperature yesterday: 19 °F (at 10:52 AM)
Average temperature yesterday: 22 °F

Past Weeks' High & Low Weather Summary

 TemperatureHumidityPressure
High44 °F (Jan 18, 3:52 PM)100% (Jan 18, 11:57 AM)30.64 "Hg (Jan 18, 11:57 AM)
Low13 °F (Jan 17, 5:52 AM)27% (Jan 17, 12:52 PM)29.22 "Hg (Jan 24, 3:52 PM)
Average29 °F65%30.01 "Hg
* Reported Jan 12 9:52 PM — Jan 27 9:52 PM, Bridgeport, Weather by CustomWeather, © 2014

Note: Actual official high and low records may vary slightly from our data, if they occured in-between our weather recording intervals... More about our weather records

Advertising

Bridgeport weather history for previous 24 hours

 ConditionsComfort  
Time TempWeatherWind HumidityBarometerVisibility
9:52 PM
Jan 27
18 °FLight snow. Overcast.15 mph68%29.77 "Hg5 mi
8:52 PM18 °FLight snow. Mostly cloudy.23 mph65%29.74 "Hg4 mi
7:52 PM19 °FMostly cloudy.23 mph62%29.71 "Hg10 mi
6:52 PM20 °FOvercast.18 mph65%29.69 "Hg10 mi
5:52 PM21 °FClear.21 mph62%29.66 "Hg9 mi
4:52 PM21 °FPassing clouds.21 mph62%29.65 "Hg8 mi
3:52 PM21 °FLight snow. Sunny.20 mph65%29.62 "Hg7 mi
2:52 PM21 °FLight snow. Sunny.22 mph65%29.62 "Hg7 mi
1:52 PM21 °FLight snow. Passing clouds.26 mph68%29.61 "Hg5 mi
12:52 PM21 °FOvercast.15 mph71%29.62 "Hg10 mi
12:02 PM21 °FSnow. Overcast.16 mph74%29.63 "Hg1 mi
11:52 AM21 °FLight snow. Overcast.13 mph74%29.62 "Hg5 mi
10:52 AM20 °FLight snow. Mostly cloudy.18 mph78%29.62 "Hg3 mi
9:52 AM19 °FIce fog.14 mph88%29.63 "Hg1 mi
9:00 AM20 °FLight snow. Ice fog.15 mph89%29.62 "Hg1 mi
8:03 AM22 °FIce fog.16 mph89%29.61 "Hg1 mi
6:52 AM21 °FIce fog.14 mph88%29.60 "Hg2 mi
5:52 AM21 °FIce fog.18 mph85%29.59 "Hg3 mi
4:52 AM20 °FIce fog.17 mph85%29.59 "Hg2 mi
3:52 AM19 °FIce fog.23 mph92%29.63 "Hg1 mi
2:52 AM20 °FIce fog.18 mph89%29.66 "Hg1 mi
1:52 AM21 °FLight snow. Ice fog.23 mph88%29.67 "Hg1 mi
1:02 AM22 °FLight snow. Ice fog.25 mph89%29.63 "Hg2 mi
12:52 AM22 °FLight snow. Ice fog.29 mph92%29.62 "Hg1 mi
11:52 PM
Jan 26
23 °FLight snow. Ice fog.25 mph92%29.64 "Hg1 mi
Weather by CustomWeather, © 2014

See weather overviewHow to use our weather pages